Location: Berg
(48.4333°N, 13.9167°E)
Time: 05:56:57
(UTC+00:00)

ATLAS CENTAUR R/B - Pass Details

Date: 21 January 2021
Orbit: 471 x 674 km, 64.6° (Epoch: 28 February)

Event Time Altitude Azimuth Distance (km) Brightness Sun altitude
Rises 05:50:47 0° 212° (SSW) 2,530 4.6 -9.1°
Reaches altitude 10° 05:52:56 10° 211° (SSW) 1,642 3.6 -8.8°
Maximum altitude 05:56:33 73° 127° (SE) 497 1.3 -8.2°
Drops below altitude 10° 06:00:10 10° 42° (NE) 1,645 4.0 -7.7°
Sets 06:02:19 0° 41° (NE) 2,536 5.0 -7.3°
